Weather History for KMQB - November, 2013

Change the Weather History Date:

Thursday, November 28, 2013

  Actual Average (KBRL) Record (KBRL)
Temperature  
Mean Temperature 30 °F 36 °F  
Max Temperature 41 °F 44 °F 68 °F (2006)
Min Temperature 18 °F 27 °F 0 °F (1976)
Degree Days  
Heating Degree Days 36 29  
Month to date heating degree days 620  
Since 1 July heating degree days 1014  
Cooling Degree Days 0 0  
Month to date cooling degree days 0  
Year to date cooling degree days 1206  
Moisture  
Dew Point 17 °F    
Average Humidity 64    
Maximum Humidity 83    
Minimum Humidity 43    
Precipitation  
Precipitation 0.00 in 0.08 in 0.70 in (1997)
Month to date precipitation 2.33  
Year to date precipitation 36.22  
Sea Level Pressure  
Sea Level Pressure 30.31 in    
Wind  
Wind Speed 9 mph (West)    
Max Wind Speed 15 mph    
Max Gust Speed 21 mph    
Visibility 10 miles    
Events      
T = Trace of Precipitation, MM = Missing Value Source: NWS Daily Summary

Daily Weather History Graph

Daily Weather History Graph

Search for Another Location

Airport or City:

Trip Planner

Search our weather history database for the weather conditions in past years. The results will help you decide how hot, cold, wet, or windy it might be!

Date:

Astronomy

Nov. 28, 2013 Rise Set
Actual Time 7:03 AM CST 4:37 PM CST
Civil Twilight 6:33 AM CST 5:07 PM CST
Nautical Twilight 5:59 AM CST 5:41 PM CST
Astronomical Twilight 5:27 AM CST 6:13 PM CST
Moon 2:05 AM CST (11/28) 1:47 PM CST (11/28)
Length of Visible Light 10h 33m
Length of Day
9h 33m
Waning Crescent, 22% of the Moon is Illuminated
Nov 28
Waning Crescent
Dec 2
New
Dec 9
First Quarter
Dec 17
Full
Dec 25
Last Quarter

Hourly Weather History & Observations

Time (CST) Temp. Windchill Dew Point Humidity Pressure Visibility Wind Dir Wind Speed Gust Speed Precip Events Conditions
12:15 AM 21.7 °F 14.3 °F 13.3 °F 70% 30.26 in 10.0 mi SSE 5.8 mph - N/A   Scattered Clouds
12:35 AM 23.0 °F 17.0 °F 13.8 °F 68% 30.26 in 10.0 mi SSE 4.6 mph - N/A   Scattered Clouds
12:55 AM 23.5 °F 14.5 °F 13.5 °F 65% 30.25 in 10.0 mi SSE 8.1 mph - N/A   Mostly Cloudy
1:15 AM 23.9 °F 15.8 °F 14.5 °F 67% 30.25 in 10.0 mi SSE 6.9 mph - N/A   Mostly Cloudy
1:35 AM 24.3 °F 14.6 °F 14.4 °F 66% 30.25 in 10.0 mi SSE 9.2 mph - N/A   Scattered Clouds
1:55 AM 23.9 °F 13.5 °F 14.9 °F 69% 30.24 in 10.0 mi SSE 10.4 mph - N/A   Scattered Clouds
2:15 AM 23.7 °F 12.6 °F 14.9 °F 69% 30.23 in 10.0 mi South 11.5 mph - N/A   Clear
2:35 AM 23.9 °F 14.2 °F 14.7 °F 68% 30.23 in 10.0 mi SSE 9.2 mph - N/A   Clear
2:55 AM 23.7 °F 12.6 °F 14.7 °F 69% 30.22 in 10.0 mi SSE 11.5 mph - N/A   Clear
3:15 AM 23.5 °F 12.4 °F 14.5 °F 69% 30.20 in 10.0 mi SSE 11.5 mph - N/A   Clear
3:35 AM 22.8 °F 13.6 °F 14.7 °F 71% 30.20 in 10.0 mi SSE 8.1 mph - N/A   Clear
3:55 AM 22.6 °F 12.6 °F 14.7 °F 72% 30.19 in 10.0 mi SSE 9.2 mph - N/A   Clear
4:15 AM 23.4 °F 11.6 °F 14.5 °F 69% 30.18 in 10.0 mi South 12.7 mph - N/A   Clear
4:35 AM 23.9 °F 11.7 °F 14.0 °F 66% 30.17 in 10.0 mi South 13.8 mph - N/A   Clear
4:55 AM 23.9 °F 12.3 °F 14.4 °F 67% 30.17 in 10.0 mi South 12.7 mph - N/A   Clear
5:15 AM 23.7 °F 12.6 °F 14.5 °F 68% 30.17 in 10.0 mi South 11.5 mph - N/A   Clear
5:35 AM 23.7 °F 13.3 °F 14.5 °F 68% 30.17 in 10.0 mi South 10.4 mph - N/A   Clear
5:55 AM 23.5 °F 12.4 °F 14.7 °F 69% 30.17 in 10.0 mi South 11.5 mph - N/A   Clear
6:15 AM 23.7 °F 12.6 °F 14.7 °F 69% 30.17 in 10.0 mi South 11.5 mph - N/A   Clear
6:35 AM 23.9 °F 14.2 °F 14.9 °F 69% 30.18 in 10.0 mi South 9.2 mph - N/A   Clear
6:55 AM 23.7 °F 14.7 °F 14.9 °F 69% 30.18 in 10.0 mi South 8.1 mph - N/A   Clear
7:15 AM 23.5 °F 15.4 °F 14.9 °F 70% 30.19 in 10.0 mi SSW 6.9 mph - N/A   Clear
7:35 AM 23.9 °F 15.8 °F 15.1 °F 69% 30.19 in 10.0 mi SSW 6.9 mph - N/A   Clear
7:55 AM 25.5 °F 16.9 °F 15.8 °F 67% 30.20 in 10.0 mi SSW 8.1 mph - N/A   Clear
8:15 AM 27.0 °F 17.3 °F 16.2 °F 64% 30.20 in 10.0 mi SSW 10.4 mph - N/A   Clear
8:35 AM 28.4 °F 19.1 °F 16.7 °F 62% 30.21 in 10.0 mi SW 10.4 mph - N/A   Clear
8:55 AM 30.0 °F 20.0 °F 17.4 °F 59% 30.21 in 10.0 mi SW 12.7 mph - N/A   Clear
9:15 AM 31.5 °F 21.8 °F 18.1 °F 58% 30.21 in 10.0 mi WSW 12.7 mph - N/A   Clear
9:35 AM 32.2 °F 22.7 °F 18.7 °F 58% 30.22 in 10.0 mi WSW 12.7 mph - N/A   Clear
9:55 AM 33.4 °F 24.3 °F 19.0 °F 56% 30.22 in 10.0 mi WSW 12.7 mph - N/A   Clear
10:15 AM 34.5 °F 26.2 °F 19.4 °F 54% 30.23 in 10.0 mi West 11.5 mph - N/A   Clear
10:35 AM 35.8 °F 28.8 °F 19.9 °F 53% 30.24 in 10.0 mi West 9.2 mph - N/A   Clear
10:55 AM 36.1 °F 29.3 °F 20.1 °F 52% 30.24 in 10.0 mi West 9.2 mph - N/A   Clear
11:15 AM 36.9 °F 30.1 °F 20.1 °F 51% 30.24 in 10.0 mi WNW 9.2 mph - N/A   Clear
11:35 AM 37.4 °F 30.8 °F 20.1 °F 50% 30.24 in 10.0 mi WNW 9.2 mph - N/A   Clear
11:55 AM 38.3 °F 30.9 °F 20.1 °F 48% 30.24 in 10.0 mi NW 11.5 mph 16.1 mph N/A   Clear
12:15 PM 39.2 °F 32.5 °F 20.3 °F 47% 30.25 in 10.0 mi NW 10.4 mph - N/A   Clear
12:35 PM 39.4 °F 32.7 °F 20.3 °F 46% 30.25 in 10.0 mi West 10.4 mph 16.1 mph N/A   Clear
12:55 PM 40.1 °F 33.6 °F 20.3 °F 45% 30.25 in 10.0 mi West 10.4 mph 16.1 mph N/A   Clear
1:15 PM 40.1 °F 33.2 °F 20.1 °F 45% 30.26 in 10.0 mi West 11.5 mph - N/A   Clear
1:35 PM 40.6 °F 33.4 °F 20.1 °F 44% 30.27 in 10.0 mi West 12.7 mph 18.4 mph N/A   Clear
1:55 PM 41.0 °F 33.1 °F 20.3 °F 44% 30.28 in 10.0 mi NW 15.0 mph - N/A   Clear
2:15 PM 41.2 °F 34.5 °F 20.1 °F 43% 30.29 in 10.0 mi WNW 11.5 mph - N/A   Clear
2:35 PM 41.0 °F 33.5 °F 20.1 °F 43% 30.30 in 10.0 mi WNW 13.8 mph 18.4 mph N/A   Clear
2:55 PM 40.6 °F 33.4 °F 19.8 °F 43% 30.30 in 10.0 mi WNW 12.7 mph - N/A   Clear
3:15 PM 40.1 °F 32.4 °F 19.8 °F 44% 30.32 in 10.0 mi NW 13.8 mph 20.7 mph N/A   Clear
3:35 PM 39.4 °F 31.8 °F 19.4 °F 45% 30.33 in 10.0 mi NW 12.7 mph 19.6 mph N/A   Clear
3:55 PM 38.7 °F 31.8 °F 19.4 °F 46% 30.35 in 10.0 mi NW 10.4 mph 18.4 mph N/A   Clear
4:15 PM 37.4 °F 30.3 °F 19.6 °F 49% 30.36 in 10.0 mi NW 10.4 mph - N/A   Clear
4:35 PM 36.1 °F 28.7 °F 19.4 °F 51% 30.37 in 10.0 mi NW 10.4 mph - N/A   Clear
4:55 PM 34.7 °F 27.5 °F 19.4 °F 54% 30.38 in 10.0 mi NW 9.2 mph - N/A   Clear
5:15 PM 32.0 °F 24.8 °F 19.4 °F 60% 30.40 in 10.0 mi NW 8.1 mph - N/A   Clear
5:35 PM 29.5 °F 22.5 °F 19.6 °F 67% 30.41 in 10.0 mi NNW 6.9 mph - N/A   Clear
5:55 PM 27.7 °F 19.6 °F 18.9 °F 69% 30.42 in 10.0 mi NNW 8.1 mph - N/A   Clear
6:15 PM 27.5 °F 19.3 °F 18.9 °F 70% 30.43 in 10.0 mi NNW 8.1 mph - N/A   Clear
6:35 PM 27.1 °F 20.7 °F 18.5 °F 70% 30.45 in 10.0 mi NW 5.8 mph - N/A   Clear
6:55 PM 26.4 °F 19.8 °F 18.5 °F 72% 30.45 in 10.0 mi NNW 5.8 mph - N/A   Clear
7:15 PM 25.3 °F 19.7 °F 17.8 °F 73% 30.46 in 10.0 mi NNW 4.6 mph - N/A   Clear
7:35 PM 24.8 °F - 17.6 °F 74% 30.47 in 10.0 mi Calm Calm - N/A   Clear
7:55 PM 23.2 °F 16.0 °F 16.3 °F 75% 30.47 in 10.0 mi NW 5.8 mph - N/A   Clear
8:15 PM 23.0 °F 14.7 °F 16.5 °F 76% 30.48 in 10.0 mi NW 6.9 mph - N/A   Clear
8:35 PM 24.4 °F 14.9 °F 17.6 °F 75% 30.48 in 10.0 mi NNW 9.2 mph - N/A   Clear
8:55 PM 23.0 °F 15.8 °F 17.4 °F 79% 30.49 in 10.0 mi NNW 5.8 mph - N/A   Clear
9:15 PM 23.5 °F 15.4 °F 17.4 °F 77% 30.49 in 10.0 mi NNW 6.9 mph - N/A   Clear
9:35 PM 22.8 °F 14.5 °F 16.7 °F 77% 30.50 in 10.0 mi NNW 6.9 mph - N/A   Clear
9:55 PM 22.6 °F 16.5 °F 16.7 °F 78% 30.50 in 10.0 mi NNW 4.6 mph - N/A   Clear
10:15 PM 21.6 °F 15.3 °F 16.5 °F 81% 30.51 in 10.0 mi North 4.6 mph - N/A   Clear
10:35 PM 22.1 °F 14.7 °F 16.3 °F 79% 30.52 in 10.0 mi NNW 5.8 mph - N/A   Clear
10:55 PM 20.7 °F 15.8 °F 15.6 °F 81% 30.52 in 10.0 mi NNW 3.5 mph - N/A   Clear
11:15 PM 20.1 °F - 14.9 °F 80% 30.52 in 10.0 mi Calm Calm - N/A   Clear
11:35 PM 18.3 °F - 13.8 °F 83% 30.52 in 10.0 mi Calm Calm - N/A   Clear
11:55 PM 19.8 °F - 15.1 °F 82% 30.53 in 10.0 mi Calm Calm - N/A   Clear